Location: Beaurecueil
(43.5122°N, 5.5450°E)
Time: 03:27:56
(UTC+00:00)

Meteor 1-21 - Pass Details

Date: 20 June 2021
Orbit: 846 x 885 km, 81.2° (Epoch: 03 August)

Event Time Altitude Azimuth Distance (km) Brightness Sun altitude
Rises 21:20:48 0° 236° (WSW) 3,423 7.4 -15.9°
Reaches altitude 10° 21:24:09 10° 256° (WSW) 2,485 6.9 -16.2°
Maximum altitude 21:27:42 17° 296° (WNW) 2,035 7.0 -16.5°
Drops below altitude 10° 21:31:16 10° 336° (NNW) 2,484 8.0 -16.9°
Sets 21:34:38 0° 356° (N) 3,421 8.5 -17.2°
